Terminal Aerodrome Forecast
Issued by NWS

Home | Current Version | Previous Version | Text Only | Print | Product List | Glossary On
Versions: 1 2 3 4 5 6 7 8 9 10 11 12 13 14 15 16 17
000
FTUS46 KLOX 231721
TAFBUR
TAF
KBUR 231721Z 2318/2418 17006KT P6SM SKC
     FM231900 17008KT P6SM SCT150
     FM232200 18010KT P6SM SCT150
     FM240700 13006KT 5SM BR BKN007
     FM241000 VRB03KT 6SM BR OVC010=

USA.gov is the U.S. government's official web portal to all federal, state and local government web resources and services.